Weather History for Charlottetown, PE

Change the Weather History Date:

Saturday, September 21, 2013

  Actual Average Record
Temperature  
Mean Temperature 56 °F -  
Max Temperature 68 °F 57 °F 73 °F (2000)
Min Temperature 44 °F 42 °F 41 °F (2004)
Degree Days  
Heating Degree Days 9    
Growing Degree Days 6 (Base 50)    
Moisture  
Dew Point 54 °F    
Average Humidity 81    
Maximum Humidity 94    
Minimum Humidity 62    
Precipitation  
Precipitation 0.00 in 0.14 in - ()
Sea Level Pressure  
Sea Level Pressure 30.05 in    
Wind  
Wind Speed 11 mph ()    
Max Wind Speed 21 mph    
Max Gust Speed 29 mph    
Visibility 15.0 miles    
Events      
Averages and records for this station are not official NWS values.
T = Trace of Precipitation, MM = Missing Value Source: Averaged Metar Reports

Daily Weather History Graph

Daily Weather History Graph

Search for Another Location

Airport:

Trip Planner

Search our weather history database for the weather conditions in past years. The results will help you decide how hot, cold, wet, or windy it might be!

Date:

Astronomy

Sep. 21, 2013 Rise Set
Actual Time 6:58 AM ADT 7:11 PM ADT
Civil Twilight 6:28 AM ADT 7:41 PM ADT
Nautical Twilight 5:53 AM ADT 8:16 PM ADT
Astronomical Twilight 5:16 AM ADT 8:53 PM ADT
Moon 8:08 PM ADT (9/21) 9:22 AM ADT (9/21)
Length of Visible Light 13h 13m
Length of Day
12h 13m
Waning Gibbous, 95% of the Moon is Illuminated
Sep 21
Waning Gibbous
Sep 27
Last Quarter
Oct 4
New
Oct 11
First Quarter
Oct 18
Full

Hourly Weather History & Observations

Time (ADT) Temp. Windchill Dew Point Humidity Pressure Visibility Wind Dir Wind Speed Gust Speed Precip Events Conditions
12:00 AM 46.4 °F 42.9 °F 42.8 °F 87% 30.18 in 15.0 mi ESE 6.9 mph - N/A   Scattered Clouds
1:00 AM 46.4 °F 44.3 °F 42.8 °F 87% 30.17 in 15.0 mi SE 4.6 mph - N/A   Scattered Clouds
2:00 AM 50.0 °F - 44.6 °F 82% 30.16 in 15.0 mi East 4.6 mph - N/A   Mostly Cloudy
3:00 AM 48.2 °F - 44.6 °F 87% 30.14 in 15.0 mi SE 5.8 mph - N/A   Mostly Cloudy
4:00 AM 48.2 °F - 46.4 °F 93% 30.13 in 15.0 mi ESE 4.6 mph - N/A   Mostly Cloudy
5:00 AM 53.6 °F - 50.0 °F 88% 30.13 in 15.0 mi SSE 9.2 mph - N/A   Overcast
6:00 AM 53.6 °F - 51.8 °F 94% 30.12 in 15.0 mi SSE 12.7 mph - N/A   Overcast
7:00 AM 55.4 °F - 51.8 °F 88% 30.12 in 15.0 mi SSE 17.3 mph - N/A   Overcast
8:00 AM 55.4 °F - 51.8 °F 88% 30.12 in 15.0 mi South 17.3 mph - N/A   Overcast
9:00 AM 57 °F - 53 °F 83% 30.12 in 15 mi South 13.8 mph - -   Mostly Cloudy
9:00 AM 57.2 °F - 53.6 °F 88% 30.12 in 15.0 mi South 15.0 mph - N/A   Mostly Cloudy
10:00 AM 60.8 °F - 55.4 °F 82% 30.11 in 15.0 mi South 13.8 mph 20.7 mph N/A   Mostly Cloudy
11:00 AM 62.6 °F - 55.4 °F 77% 30.09 in 15.0 mi South 19.6 mph 25.3 mph N/A   Mostly Cloudy
12:00 PM 64.4 °F - 55.4 °F 73% 30.06 in 15.0 mi South 19.6 mph - N/A   Mostly Cloudy
1:00 PM 66.2 °F - 57.2 °F 73% 30.04 in 15.0 mi South 19.6 mph - N/A   Mostly Cloudy
2:00 PM 66.2 °F - 59.0 °F 78% 30.01 in 15.0 mi South 20.7 mph 27.6 mph N/A   Mostly Cloudy
3:00 PM 68 °F - 58 °F 62% 30.00 in 15 mi South 20.7 mph - -   Scattered Clouds
3:00 PM 68.0 °F - 57.2 °F 68% 29.99 in 15.0 mi South 19.6 mph 28.8 mph N/A   Mostly Cloudy
4:00 PM 68.0 °F - 57.2 °F 68% 29.97 in 15.0 mi South 19.6 mph 27.6 mph N/A   Mostly Cloudy
5:00 PM 68.0 °F - 57.2 °F 68% 29.95 in 15.0 mi South 18.4 mph - N/A   Mostly Cloudy
6:00 PM 66.2 °F - 57.2 °F 73% 29.94 in 15.0 mi South 19.6 mph 26.5 mph N/A   Mostly Cloudy
7:00 PM 64.4 °F - 57.2 °F 77% 29.94 in 15.0 mi South 16.1 mph - N/A   Mostly Cloudy
8:00 PM 64.4 °F - 57.2 °F 77% 29.94 in 15.0 mi South 17.3 mph 23.0 mph N/A   Mostly Cloudy
9:00 PM 62 °F - 57 °F 79% 29.94 in 15 mi South 18.4 mph - -   Clear
9:00 PM 62.6 °F - 57.2 °F 82% 29.94 in 15.0 mi South 19.6 mph 25.3 mph N/A   Mostly Cloudy
10:00 PM 60.8 °F - 59.0 °F 94% 29.94 in 15.0 mi South 18.4 mph - N/A   Scattered Clouds
11:00 PM 60.8 °F - 57.2 °F 88% 29.94 in 15.0 mi South 18.4 mph 25.3 mph N/A   Partly Cloudy